Home   Weather   Debrecen   Past weeks

Flag for Hungary Past Weather in Debrecen, Hungary — Yesterday and Last 2 Weeks

54 °F

Passing clouds.

Feels Like: 52 °F
Forecast: 39 / 55 °F
Wind: 6 mph from Southwest

Location: Debrecen Airport

Current Time: Oct 22, 2016 at 6:11:19 PM

Latest Report: Oct 22, 2016 at 5:15 PM

Visibility: N/A

Pressure: 30.04 "Hg

Humidity: 63%

Dew Point: 41 °F

Location of DebrecenLocation

Past Weather in Debrecen — Graph


Debrecen Temperature Yesterday

Maximum temperature yesterday: 54 °F (at 1:45 PM)
Minimum temperature yesterday: 48 °F (at 7:45 AM)
Average temperature yesterday: 51 °F

High & Low Weather Summary for the Past Weeks

High64 °F (Oct 15, 1:45 PM)100% (Oct 10, 8:01 AM)30.45 "Hg (Oct 10, 8:01 AM)
Low34 °F (Oct 8, 7:15 AM)44% (Oct 8, 4:45 PM)29.74 "Hg (Oct 12, 12:15 PM)
Average49 °F81%30.11 "Hg
* Reported Oct 7 4:15 PM — Oct 22 4:45 PM, Debrecen, Weather by CustomWeather, © 2016

Note: Actual official high and low records may vary slightly from our data, if they occured in-between our weather recording intervals... More about our weather records


Debrecen Weather History for the Previous 24 Hours

Scroll right to see more
Time TempWeatherWind HumidityBarometerVisibility
4:45 PM
Sat, Oct 22
55 °FPassing clouds.8 mph55%30.04 "HgN/A
4:15 PM57 °FPassing clouds.10 mph51%30.04 "HgN/A
3:45 PM57 °FPassing clouds.10 mph59%30.04 "HgN/A
3:15 PM57 °FPassing clouds.13 mph63%30.01 "HgN/A
2:45 PM59 °FPassing clouds.10 mph63%30.01 "HgN/A
2:15 PM57 °FPassing clouds.8 mph72%30.01 "HgN/A
1:45 PM55 °FScattered clouds.9 mph77%30.01 "HgN/A
1:15 PM55 °FScattered clouds.10 mph82%30.01 "HgN/A
12:45 PM52 °FPartly sunny.8 mph94%30.01 "HgN/A
12:15 PM52 °FPartly sunny.9 mph88%30.01 "Hg5 mi
11:45 AM52 °FPartly sunny.8 mph94%30.01 "Hg4 mi
11:15 AM52 °FPartly sunny.8 mph94%29.98 "Hg4 mi
10:45 AM52 °FPartly sunny.8 mph94%29.98 "Hg4 mi
10:15 AM50 °FDrizzle. Partly sunny.6 mph100%29.95 "Hg4 mi
9:46 AM52 °FDrizzle. Partly sunny.8 mph94%29.98 "Hg2 mi
9:15 AM52 °FRain. Partly sunny.7 mph94%29.95 "Hg2 mi
8:45 AM52 °FRain. Partly sunny.7 mph94%29.95 "Hg2 mi
8:15 AM52 °FRain. Partly sunny.7 mph94%29.95 "Hg3 mi
7:45 AM52 °FRain. Partly sunny.5 mph94%29.92 "Hg2 mi
7:15 AM50 °FRain. Partly sunny.3 mph100%29.92 "Hg2 mi
6:45 AM50 °FRain. Passing clouds.3 mph100%29.92 "Hg2 mi
6:15 AM50 °FRain. Passing clouds.5 mph100%29.92 "Hg3 mi
5:58 AM50 °FPassing clouds.5 mph100%29.92 "Hg3 mi
5:45 AM50 °FLight rain. Mostly cloudy.5 mph100%29.92 "Hg4 mi
5:15 AM50 °FLight rain. Overcast.3 mph100%29.92 "Hg5 mi
11:45 PM
Fri, Oct 21
50 °FDrizzle. Low clouds.6 mph100%29.98 "Hg3 mi
11:15 PM50 °FDrizzle. Low clouds.6 mph100%29.98 "Hg3 mi
10:51 PM50 °FDrizzle. Low clouds.6 mph100%29.98 "Hg2 mi
10:15 PM50 °FDrizzle. Mostly cloudy.5 mph100%29.98 "Hg2 mi
9:45 PM50 °FDrizzle. Mostly cloudy.3 mph100%29.98 "Hg1 mi
9:15 PM50 °FDrizzle. Mostly cloudy.2 mph100%29.98 "Hg2 mi
8:45 PM50 °FDrizzle. Mostly cloudy.6 mph100%29.95 "Hg2 mi
8:15 PM50 °FDrizzle. Mostly cloudy.5 mph100%29.95 "Hg2 mi
7:45 PM50 °FDrizzle. Mostly cloudy.3 mph100%29.98 "Hg2 mi
7:15 PM50 °FLight rain. Mostly cloudy.3 mph100%29.98 "Hg2 mi
6:45 PM52 °FDrizzle. Mostly cloudy.3 mph94%29.98 "Hg2 mi
6:15 PM52 °FDrizzle. Mostly cloudy.5 mph94%29.95 "Hg2 mi
Weather by CustomWeather, © 2016

See weather overviewHow to use our weather pages